Date String (YYYY-MM-DD hh:mm:ss) UTC,Instrument flags,Ambient pressure (hPa),Sample flow (lpm),Bypass flow (lpm),Sample temperature (°C),Ambient temperature (°C),ASC tube jacket temperature (°C),LED temperature (°C),Box temperature (°C),Sample RH (%),Span deviation,Mass concentration (μg/m³),Mass concentration (μg/m³),Mass concentration (μg/m³)
DateTimeUTC,F1_M11,P_M11,Q1_M11,Q2_M11,T1_M11,T2_M11,T3_M11,T4_M11,T5_M11,U1_M11,ZSPAN_M11,X0_M11,X2_M11,X1_M11
2022-12-29 02:00:00,,0811.2,5.01,0.00,24.2,23.0,00.0,33.0,26.1,19.3,0000.0,0005.29,0003.69,0003.61
2022-12-29 02:01:00,,0811.2,5.00,0.00,24.2,23.0,00.0,33.0,26.1,19.3,0000.0,0005.26,0003.69,0003.62
2022-12-29 02:02:00,,0811.2,5.00,0.00,24.2,23.1,00.0,33.0,26.2,19.2,0000.0,0005.28,0003.70,0003.63
2022-12-29 02:03:00,,0811.2,5.01,0.00,24.2,23.1,00.0,33.1,26.1,19.2,0000.0,0005.30,0003.70,0003.63
2022-12-29 02:04:00,,0811.2,5.02,0.00,24.2,23.1,00.0,33.1,26.2,19.2,0000.0,0005.34,0003.72,0003.65
2022-12-29 02:05:00,,0811.2,5.01,0.00,24.3,23.1,00.0,33.1,26.2,19.1,0000.0,0005.37,0003.73,0003.66
2022-12-29 02:06:00,,0811.2,4.99,0.00,24.3,23.1,00.0,33.1,26.2,19.1,0000.0,0005.29,0003.70,0003.64
2022-12-29 02:07:00,,0811.2,4.99,0.00,24.3,23.1,00.0,33.1,26.2,19.1,0000.0,0005.14,0003.65,0003.59
2022-12-29 02:08:00,,0811.2,5.00,0.00,24.3,23.1,00.0,33.1,26.2,19.1,0000.0,0004.96,0003.59,0003.54
2022-12-29 02:09:00,,0811.2,5.01,0.00,24.3,23.1,00.0,33.1,26.2,19.1,0000.0,0004.79,0003.51,0003.47
2022-12-29 02:10:00,,0811.3,5.01,0.00,24.3,23.1,00.0,33.1,26.2,19.1,0000.0,0004.64,0003.44,0003.39
2022-12-29 02:11:00,,0811.3,5.01,0.00,24.3,23.1,00.0,33.1,26.2,19.1,0000.0,0004.45,0003.35,0003.31
2022-12-29 02:12:00,,0811.3,5.01,0.00,24.3,23.1,00.0,33.1,26.2,19.1,0000.0,0004.28,0003.27,0003.23
2022-12-29 02:13:00,,0811.3,5.01,0.00,24.3,23.1,00.0,33.1,26.3,19.1,0000.0,0003.96,0003.13,0003.08
2022-12-29 02:14:00,,0811.3,5.00,0.00,24.3,23.1,00.0,33.1,26.3,19.1,0000.0,0003.63,0002.89,0002.85
2022-12-29 02:15:00,,0811.4,4.99,0.00,24.3,23.1,00.0,33.2,26.3,19.1,0000.0,0003.31,0002.64,0002.59
2022-12-29 02:16:00,,0811.4,4.99,0.00,24.3,23.1,00.0,33.2,26.2,19.1,0000.0,0003.00,0002.40,0002.36
2022-12-29 02:17:00,,0811.4,5.01,0.00,24.3,23.0,00.0,33.2,26.2,19.1,0000.0,0002.71,0002.16,0002.12
2022-12-29 02:18:00,,0811.3,5.01,0.00,24.3,23.0,00.0,33.2,26.2,19.1,0000.0,0002.50,0001.99,0001.95
2022-12-29 02:19:00,,0811.3,5.00,0.00,24.3,22.9,00.0,33.2,26.1,19.1,0000.0,0002.26,0001.81,0001.78
2022-12-29 02:20:00,,0811.3,5.00,0.00,24.3,22.8,00.0,33.2,26.1,19.2,0000.0,0002.10,0001.67,0001.64
2022-12-29 02:21:00,,0811.3,5.00,0.00,24.3,22.8,00.0,33.2,26.1,19.2,0000.0,0001.99,0001.58,0001.55
2022-12-29 02:22:00,,0811.4,5.00,0.00,24.2,22.8,00.0,33.2,26.1,19.2,0000.0,0001.92,0001.53,0001.49
2022-12-29 02:23:00,,0811.4,4.98,0.00,24.2,22.7,00.0,33.2,26.0,19.2,0000.0,0001.88,0001.49,0001.44
2022-12-29 02:24:00,,0811.4,4.99,0.00,24.2,22.6,00.0,33.2,26.0,19.2,0000.0,0001.92,0001.52,0001.47
2022-12-29 02:25:00,,0811.4,4.99,0.00,24.2,22.5,00.0,33.1,26.0,19.2,0000.0,0001.98,0001.57,0001.51
2022-12-29 02:26:00,,0811.4,4.99,0.00,24.2,22.5,00.0,33.1,25.9,19.2,0000.0,0002.00,0001.56,0001.50
2022-12-29 02:27:00,,0811.4,5.00,0.00,24.1,22.4,00.0,33.1,25.9,19.2,0000.0,0001.99,0001.54,0001.49
2022-12-29 02:28:00,,0811.5,5.00,0.00,24.1,22.4,00.0,33.1,25.9,19.3,0000.0,0002.02,0001.57,0001.51
2022-12-29 02:29:00,,0811.5,5.00,0.00,24.1,22.3,00.0,33.1,25.8,19.3,0000.0,0002.09,0001.62,0001.54
2022-12-29 02:30:00,,0811.4,5.00,0.00,24.0,22.2,00.0,33.1,25.7,19.3,0000.0,0002.13,0001.66,0001.58
2022-12-29 02:31:00,,0811.5,5.00,0.00,24.0,22.2,00.0,33.0,25.6,19.4,0000.0,0002.16,0001.68,0001.60
2022-12-29 02:32:00,,0811.4,5.00,0.00,24.0,22.1,00.0,33.0,25.6,19.4,0000.0,0002.16,0001.68,0001.60
2022-12-29 02:33:00,,0811.5,5.00,0.00,23.9,22.0,00.0,33.0,25.5,19.5,0000.0,0002.09,0001.64,0001.56
2022-12-29 02:34:00,,0811.5,5.00,0.00,23.9,21.9,00.0,32.9,25.5,19.5,0000.0,0002.02,0001.58,0001.51
2022-12-29 02:35:00,,0811.5,5.00,0.00,23.8,21.9,00.0,32.9,25.5,19.5,0000.0,0001.96,0001.54,0001.48
2022-12-29 02:36:00,,0811.6,4.99,0.00,23.8,21.9,00.0,32.9,25.5,19.6,0000.0,0001.90,0001.49,0001.44
2022-12-29 02:37:00,,0811.6,5.00,0.00,23.8,21.9,00.0,32.9,25.4,19.7,0000.0,0001.87,0001.49,0001.45
2022-12-29 02:38:00,,0811.6,5.00,0.00,23.7,21.8,00.0,32.8,25.4,19.6,0000.0,0001.86,0001.48,0001.44
2022-12-29 02:39:00,,0811.6,5.00,0.00,23.7,21.9,00.0,32.8,25.4,19.7,0000.0,0001.84,0001.47,0001.43
2022-12-29 02:40:00,,0811.6,5.00,0.00,23.7,21.9,00.0,32.8,25.4,19.7,0000.0,0001.79,0001.43,0001.41
2022-12-29 02:41:00,,0811.6,5.00,0.00,23.7,21.9,00.0,32.8,25.3,19.7,0000.0,0001.74,0001.39,0001.37
2022-12-29 02:42:00,,0811.6,5.00,0.00,23.7,21.9,00.0,32.8,25.3,19.7,0000.0,0001.71,0001.37,0001.35
2022-12-29 02:43:00,,0811.6,5.00,0.00,23.6,21.8,00.0,32.7,25.2,19.7,0000.0,0001.69,0001.34,0001.32
2022-12-29 02:44:00,,0811.5,5.00,0.00,23.6,21.8,00.0,32.7,25.2,19.8,0000.0,0001.66,0001.33,0001.31
2022-12-29 02:45:00,,0811.5,5.00,0.00,23.6,21.8,00.0,32.7,25.2,19.8,0000.0,0001.65,0001.32,0001.31
2022-12-29 02:46:00,,0811.5,5.00,0.00,23.6,21.7,00.0,32.7,25.2,19.8,0000.0,0001.65,0001.32,0001.30
2022-12-29 02:47:00,,0811.5,5.00,0.00,23.5,21.7,00.0,32.7,25.1,19.8,0000.0,0001.65,0001.31,0001.29
2022-12-29 02:48:00,,0811.5,4.99,0.00,23.5,21.7,00.0,32.6,25.1,19.9,0000.0,0001.64,0001.30,0001.28
2022-12-29 02:49:00,,0811.5,5.00,0.00,23.5,21.6,00.0,32.6,25.1,19.9,0000.0,0001.65,0001.31,0001.29
2022-12-29 02:50:00,,0811.5,5.00,0.00,23.4,21.5,00.0,32.6,25.0,20.0,0000.0,0001.66,0001.31,0001.30
2022-12-29 02:51:00,,0811.5,5.00,0.00,23.4,21.5,00.0,32.6,25.0,20.0,0000.0,0001.65,0001.31,0001.29
2022-12-29 02:52:00,,0811.6,5.00,0.00,23.4,21.5,00.0,32.5,25.0,20.1,0000.0,0001.66,0001.31,0001.29
2022-12-29 02:53:00,,0811.6,4.99,0.00,23.4,21.5,00.0,32.5,25.0,20.1,0000.0,0001.70,0001.32,0001.29
2022-12-29 02:54:00,,0811.6,5.01,0.00,23.3,21.5,00.0,32.5,24.9,20.1,0000.0,0001.69,0001.31,0001.29
2022-12-29 02:55:00,,0811.5,5.00,0.00,23.3,21.5,00.0,32.5,24.9,20.1,0000.0,0001.65,0001.28,0001.26
2022-12-29 02:56:00,,0811.6,5.00,0.00,23.3,21.5,00.0,32.4,24.9,20.1,0000.0,0001.61,0001.25,0001.22
2022-12-29 02:57:00,,0811.6,5.00,0.00,23.3,21.4,00.0,32.4,24.9,20.2,0000.0,0001.58,0001.22,0001.20
2022-12-29 02:58:00,,0811.6,5.00,0.00,23.2,21.4,00.0,32.4,24.9,20.2,0000.0,0001.54,0001.19,0001.17
2022-12-29 02:59:00,,0811.6,5.00,0.00,23.2,21.4,00.0,32.4,24.9,20.2,0000.0,0001.53,0001.17,0001.15
